Estación de Colegual INIA

Ultimos registro cada 15 minutos 39
Estación Fecha / Hora Temperatura Humedad Lluvia Velocidad Dirección Radiación Presion
39 Colegual INIA 06-05-2026 09:30 7,5 95,7 0 3,1 72 51 989
38 Colegual INIA 06-05-2026 09:15 7,4 96,2 0 3,1 64 37 989
37 Colegual INIA 06-05-2026 09:00 7,3 97,2 0 2,8 69 32 989
36 Colegual INIA 06-05-2026 08:45 7,2 97,6 0 2,9 67 13 989
35 Colegual INIA 06-05-2026 08:30 7,2 97,6 0 2,8 68 7 989
34 Colegual INIA 06-05-2026 08:15 7,2 97,3 0 3,4 70 5 989
33 Colegual INIA 06-05-2026 08:00 7,2 97,9 0 3,4 68 3 988
32 Colegual INIA 06-05-2026 07:45 7,2 97,8 0 3,2 70 1 988
31 Colegual INIA 06-05-2026 07:30 7,3 98 0 3,1 66 0 988
30 Colegual INIA 06-05-2026 07:15 7,3 98 0,1 3,5 71 0 988
29 Colegual INIA 06-05-2026 07:00 7,3 98,2 0,1 3,5 72 0 988
28 Colegual INIA 06-05-2026 06:45 7,4 98,4 0,1 3,4 70 0 988
27 Colegual INIA 06-05-2026 06:30 7,5 98,3 0,1 3,5 66 0 988
26 Colegual INIA 06-05-2026 06:15 7,6 98,4 0 3,4 68 0 988
25 Colegual INIA 06-05-2026 06:00 7,6 98,3 0 3,1 72 0 988
24 Colegual INIA 06-05-2026 05:45 7,6 98,2 0 2,1 76 0 987
23 Colegual INIA 06-05-2026 05:30 7,7 97,9 0 2 75 0 987
22 Colegual INIA 06-05-2026 05:15 7,8 98,2 0 2,3 73 0 987
21 Colegual INIA 06-05-2026 05:00 7,9 98,3 0 2,1 69 0 987
20 Colegual INIA 06-05-2026 04:45 8 98,3 0 2 69 0 987
19 Colegual INIA 06-05-2026 04:30 8,1 98,9 0,1 1,4 71 0 987
18 Colegual INIA 06-05-2026 04:15 8,2 98,4 0,2 1,5 73 0 987
17 Colegual INIA 06-05-2026 04:00 8,2 98,7 0,2 0,4 66 0 987
16 Colegual INIA 06-05-2026 03:45 8,2 98,6 0,6 0,9 66 0 987
15 Colegual INIA 06-05-2026 03:30 8,4 98,9 0,4 0,5 69 0 987
14 Colegual INIA 06-05-2026 03:15 8,4 98,6 0,7 0,3 65 0 987
13 Colegual INIA 06-05-2026 03:00 8,4 98,4 0,4 0,8 74 0 987
12 Colegual INIA 06-05-2026 02:45 8,5 98,7 0,4 0,9 73 0 987
11 Colegual INIA 06-05-2026 02:30 8,5 98,6 0,1 0,1 62 0 987
10 Colegual INIA 06-05-2026 02:15 8,5 98,6 0,5 0,2 70 0 987
9 Colegual INIA 06-05-2026 02:00 8,5 98,6 0,7 0,4 69 0 987
8 Colegual INIA 06-05-2026 01:45 8,5 98,5 0,4 0,7 70 0 987
7 Colegual INIA 06-05-2026 01:30 8,5 98,8 0,3 0,8 71 0 987
6 Colegual INIA 06-05-2026 01:15 8,4 98,3 0,6 1,2 52 0 987
5 Colegual INIA 06-05-2026 01:00 8,4 98,4 0,7 0,8 338 0 987
4 Colegual INIA 06-05-2026 00:45 8,3 98,5 0,8 1 100 0 987
3 Colegual INIA 06-05-2026 00:30 8,3 98,5 1 1,8 74 0 987
2 Colegual INIA 06-05-2026 00:15 8,3 98,6 1 0,8 358 0 987
1 Colegual INIA 06-05-2026 00:00 8,3 98,4 1,2 1,2 21 0 987